Regional Weather Roundup
Issued by NWS

Home | Current Version | Previous Version | Text Only | Print | Product List | Glossary On
Versions: 1 2 3 4 5 6 7 8 9 10 11 12 13 14 15 16 17 18 19 20 21 22 23 24 25 26 27 28 29 30 31 32 33 34 35 36 37 38 39 40 41 42 43 44 45 46 47 48 49 50
000
ASUS44 KBMX 242110
RWRAL

ALABAMA REGIONAL WEATHER ROUNDUP
NATIONAL WEATHER SERVICE BIRMINGHAM AL
400 PM CDT THU JUL 24 2014

NOTE: "FAIR" INDICATES FEW OR NO CLOUDS BELOW 12,000 FEET
WITH NO SIGNIFICANT WEATHER AND/OR OBSTRUCTIONS TO VISIBILITY.

THE REMARK "TC" DENOTES TEMPERATURE IN DEGREES CELSIUS.

ALZ001>011-014-016>018-020-242200-
NORTH ALABAMA

CITY           SKY/WX    TMP DP  RH WIND       PRES   REMARKS
MUSCLE SHOALS  MOSUNNY   88  65  46 NW8       29.99F HX  90
HUNTSVILLE     MOSUNNY   86  69  56 NW8       29.97F HX  90
DECATUR        MOSUNNY   86  68  54 W10       29.98S
HALEYVILLE     FAIR      82  70  67 N7        30.02F
GADSDEN        MOSUNNY   88  68  51 NW9       29.94S HX  91
$$

ALZ012-013-022-023-030>036-040>044-242200-
WEST CENTRAL ALABAMA

CITY           SKY/WX    TMP DP  RH WIND       PRES   REMARKS
TUSCALOOSA     MOSUNNY   91  70  49 N9        29.94F HX  96
$$

ALZ015-024>027-033>036-040>044-242200-
CENTRAL ALABAMA

CITY           SKY/WX    TMP DP  RH WIND       PRES   REMARKS
BIRMINGHAM     MOSUNNY   90  67  46 NW10G20   29.96F HX  93
MONTGOMERY     MOSUNNY   92  70  48 W7        29.94F HX  97
SHELBY CO ARPT LGT RAIN  83  74  74 VRB3      29.94F
MAXWELL AFB    MOSUNNY   90  71  53 VRB7      29.94F HX  96
GREENVILLE     PTSUNNY   88  68  51 SW5       29.94F HX  91
$$

ALZ019-021-028-029-037-038-045>048-242200-
EAST CENTRAL ALABAMA

CITY           SKY/WX    TMP DP  RH WIND       PRES   REMARKS
ANNISTON       MOSUNNY   83  71  67 SW3       29.94F
ALEXANDER CITY PTSUNNY   86  72  61 W12G25    29.98R HX  92
AUBURN         MOSUNNY   86  66  51 W9        29.99F
$$

ALZ051>064-242200-
SOUTHWEST ALABAMA

CITY           SKY/WX    TMP DP  RH WIND       PRES   REMARKS
MOBILE         PTSUNNY   80  77  90 CALM      29.98F
BROOKLEY FIELD CLOUDY    86  75  69 N5        29.98F HX  95
EVERGREEN      MOSUNNY   92  70  48 SW9       29.95F HX  97
$$

ALZ049-050-065>069-242200-
SOUTHEAST ALABAMA

CITY           SKY/WX    TMP DP  RH WIND       PRES   REMARKS
DOTHAN         LGT RAIN  78  73  84 S9        30.00S
OZARK          TSTM      77  72  83 W3        29.97R
TROY           MOSUNNY   91  68  46 SW9       29.96F HX  95
EUFAULA        FAIR      93  71  48 SW6       29.93F HX 100
$$


USA.gov is the U.S. government's official web portal to all federal, state and local government web resources and services.